Powrót do katalogu

STARLINK-3273

AktywnyŁącznośćVLEO
NORAD 50191·PAYLOAD·🇺🇸 United States

Wystrzelony Dec 18, 2021 z Vandenberg Space Force Base

Loading…

Następne Przeloty (najbliższe 24 godziny)

TLE

ŚwieżeSource: CelesTrak SupGP

Epoka: Sep 15, 2026, 02:11 UTC

1 50191C 21125AM  26258.09145833  .00033555  00000+0  99148-3 0  2585
2 50191  53.1570 116.6496 0001371  82.2997  94.3386 15.34371031    13

Śledź STARLINK-3273 w czasie rzeczywistym z AllMySat

Download on the App Store